Location: *
(49.2333°S, 177.3500°W)
Time: 22:47:28
(UTC+00:00)

Daily predictions for brighter satellites

Satellite Brightness Start Highest point End
(mag) Time Altitude Azimuth Time Altitude Azimuth Time Altitude Azimuth
ATLAS 5 CENTAUR R/B 4.5 15:26:10 17° SSE 15:26:10 17° SSE 15:27:47 10° SE
SL-16 R/B 4.2 15:42:31 10° S 15:44:39 23° S 15:44:39 23° S
CZ-4C R/B 3.3 15:51:54 51° NNE 15:52:55 55° ENE 15:59:40 10° SE
CZ-4 R/B 4.0 16:00:50 10° ENE 16:03:50 19° ESE 16:05:24 16° SSE
USA 215 3.7 15:57:42 10° ESE 16:03:32 51° S 16:03:32 51° S
CSL-04 Rocket 4.3 16:12:50 10° NE 16:18:13 54° ESE 16:21:13 26° S
Cosmos 2263 Rocket 2.5 16:20:02 62° SE 16:20:02 62° SE 16:24:44 10° SSE
In-Cosmos 22 4.4 16:25:01 61° SSE 16:25:01 61° SSE 16:29:37 10° SSE
Cosmos 1844 Rocket 4.4 16:34:23 10° NNE 16:39:20 32° ENE 16:44:19 10° SE
Cosmos 2285 Rocket 4.0 16:42:20 28° SSW 16:45:59 82° ESE 16:52:19 10° NNE
Cosmos 1484 Rocket 4.1 16:47:00 10° NE 16:50:48 41° ESE 16:53:29 18° S
Cosmos 1153 Rocket 4.4 16:47:31 10° SSW 16:53:49 80° W 17:00:07 10° N
YAOGAN 1 3.8 16:50:14 10° NE 16:54:21 41° ESE 16:58:31 10° S
IDEFIX/ARIANE 42P 2.5 16:53:55 10° N 16:59:02 60° WNW 16:59:02 60° WNW
Cosmos 2297 Rocket 4.4 17:00:15 11° SSW 17:00:15 11° SSW 17:01:16 10° S
Cosmos 540 Rocket 3.5 17:00:50 58° WNW 17:00:50 58° WNW 17:05:44 10° N
Cosmos 1503 Rocket 4.0 16:57:55 23° NNW 17:01:27 88° ENE 17:06:54 10° SSE
CZ-2C R/B 2.3 16:59:49 10° N 17:04:18 59° WNW 17:04:18 59° WNW
Cosmos 1605 Rocket 4.1 17:05:12 47° W 17:05:12 47° W 17:10:58 10° NNW
Meteor 1-24 Rocket 4.4 17:06:23 40° SW 17:06:23 40° SW 17:11:23 10° S
SL-27 R/B 4.5 17:05:41 17° S 17:07:47 28° ESE 17:10:55 10° ENE
ATLAS 5 CENTAUR R/B 3.9 17:07:43 18° SSW 17:09:21 20° S 17:13:20 10° SE
EO 1 Del DPAF 4.3 17:05:41 10° SSE 17:09:29 46° E 17:13:15 10° N
Cosmos 2061 Rocket 4.1 17:03:23 10° S 17:09:41 76° E 17:15:58 10° NNE
Okean 3 Rocket 3.6 17:10:09 60° WSW 17:10:09 60° WSW 17:14:35 10° S
Ariane Rocket 2.9 17:04:57 10° N 17:10:00 61° WNW 17:12:02 35° SW
COSMOS 2406 3.1 17:10:40 33° SW 17:13:21 72° WNW 17:19:04 10° NNE
Cosmos 1300 2.8 17:12:32 28° S 17:14:31 77° E 17:18:24 10° NNE
KORONAS-FOTON 3.7 17:16:15 43° NNW 17:17:27 73° WSW 17:21:26 10° S
Cosmos 1076 Rocket 3.5 17:15:37 27° NNW 17:17:55 64° WSW 17:22:22 10° S
ATLAS 5 CENTAUR R/B 4.3 17:14:37 25° WSW 17:18:13 33° SSW 17:22:21 10° SE
Cosmos 2100 Rocket 3.9 17:12:02 10° S 17:18:17 82° W 17:24:31 10° N
SMAP 3.0 17:15:55 10° N 17:20:37 77° WNW 17:25:01 12° SSW
Blok-L 4.3 17:10:47 10° NW 17:21:52 80° SW 17:25:23 10° SE
CSL-04 Debris 4.2 17:16:28 10° N 17:21:54 57° W 17:27:25 10° SSW
Cosmos 1515 Rocket 4.2 17:18:14 10° S 17:22:42 59° ESE 17:27:04 10° NNE
Cosmos 1766 Rocket 3.4 17:18:55 10° N 17:23:21 83° W 17:27:49 10° S
MTI 3.9 17:20:23 10° SSE 17:23:47 78° ENE 17:27:07 10° N
Cosmos 292 Rocket 3.8 17:21:02 21° SSW 17:24:22 86° ESE 17:29:12 10° NNE
CZ-2C R/B 3.8 17:19:50 10° SSE 17:24:44 84° ENE 17:29:31 10° NNW
Tiangong 2 2.8 17:24:56 24° N 17:25:25 25° N 17:28:11 10° ENE
Cosmos 1726 2.1 17:26:11 57° W 17:26:14 57° W 17:29:56 10° N
SL-14 R/B 3.7 17:22:11 10° N 17:26:17 67° E 17:30:25 10° SSE
CZ-3 R/B 4.1 17:21:33 14° WNW 17:28:47 19° NW 17:33:59 10° N
SL-16 R/B 4.3 17:27:46 10° SSW 17:29:45 14° SSW 17:29:45 14° SSW
Cosmos 1844 4.3 17:25:36 10° N 17:31:17 60° ENE 17:37:04 10° SE
Cosmos 1725 Rocket 4.5 17:25:05 10° S 17:31:29 65° ESE 17:37:48 10° NNE
Meteor 2-2 Rocket 4.1 17:26:13 10° SSW 17:31:58 76° W 17:37:37 10° N
MSX 4.0 17:26:52 10° N 17:32:26 49° W 17:38:05 10° SSW
Cosmos 1459 Rocket 4.0 17:27:37 10° SSW 17:34:01 69° W 17:40:23 10° N
Cosmos 1461 3.5 17:33:14 38° WSW 17:34:14 43° SW 17:38:39 10° SSE
Cosmos 1743 Rocket 4.1 17:30:10 10° N 17:34:35 62° E 17:39:02 10° SSE
Meteor 1-28 Rocket 4.1 17:32:12 10° SSE 17:36:01 53° E 17:39:48 10° N
Cosmos 2016 Rocket 4.0 17:30:58 10° S 17:37:29 87° W 17:43:54 10° N
Cosmos 2082 Rocket 3.4 17:32:03 10° SSW 17:37:30 40° SE 17:42:51 10° ENE
CZ-4 R/B 1.5 17:34:27 10° N 17:38:30 53° W 17:41:28 18° SSW
Cosmos 1455 3.9 17:35:06 10° S 17:38:48 35° ESE 17:42:27 10° NE
Intercosmos 25 4.2 17:31:36 10° S 17:38:53 89° ESE 17:43:17 10° N
CZ-4C R/B 3.0 17:37:08 23° WNW 17:41:43 51° SW 17:48:12 10° SE
AQUARIUS 4.4 17:38:11 10° N 17:42:35 48° W 17:46:33 13° SSW
USA 32 4.1 17:38:27 10° NNW 17:43:38 55° W 17:48:53 10° S
Cosmos 1626 3.6 17:41:26 10° NNE 17:45:00 41° E 17:48:37 10° SSE
USA 215 3.8 17:40:12 10° ESE 17:46:26 47° S 17:50:52 19° WSW
Cosmos 1833 Rocket 3.7 17:41:43 10° SSW 17:47:09 44° SE 17:52:34 10° NE
Cosmos 2151 3.7 17:44:25 10° N 17:48:36 56° E 17:52:52 10° SSE
Cosmos 1538 Rocket 3.9 17:45:07 10° SSW 17:50:22 79° WNW 17:55:37 10° NNE
Shenzhou-11 Module 3.8 17:50:11 19° NW 17:51:31 25° N 17:54:11 10° NE
Cosmos 44 Rocket 3.3 17:46:44 10° NW 17:51:49 80° SW 17:57:01 10° SE
SKYMED 2 4.1 17:50:36 10° SSE 17:55:01 63° E 17:59:22 10° N
Cosmos 1408 Rocket 3.9 17:51:32 10° NNW 17:55:43 43° WSW 17:59:57 10° S
BREEZE M DEB (TANK) 2.2 17:56:30 30° W 17:57:48 85° S 18:04:01 10° E
Cosmos 2058 3.4 17:54:01 10° N 17:58:09 64° E 18:02:22 10° SSE
Cosmos 1607 4.5 17:52:04 10° NNW 17:58:20 64° ENE 18:04:32 10° SE
Cosmos 2263 Rocket 3.4 18:01:45 19° WSW 18:03:41 23° SW 18:08:09 10° S
Gbstr 26 Del rocket 4.4 17:58:47 10° NW 18:04:36 66° NNE 18:11:48 10° ESE
Cosmos 1703 3.7 18:02:24 10° N 18:06:21 67° E 18:10:23 10° SSE
USA 116 3.8 18:05:06 10° S 18:08:21 42° WSW 18:11:54 10° NW
SAR-Lupe-3 4.5 18:09:58 10° SSE 18:13:39 77° WSW 18:17:16 10° NNW
SPOT 3 Rocket 3.7 18:10:41 10° N 18:15:44 52° W 18:20:54 10° SSW
ASTEX 1 3.6 18:12:16 10° NNW 18:17:04 49° W 18:21:55 10° SSW
H-2A R/B 4.1 18:15:40 10° NE 18:19:12 40° ESE 18:22:47 10° S
Cosmos 1328 Rocket 4.4 18:15:18 10° SSW 18:19:14 30° W 18:23:06 10° NNW
BREEZE-M R/B 4.3 18:15:19 15° W 18:19:29 90° S 18:30:31 10° E
Meteor 1-11 4.2 18:15:19 10° NNW 18:21:01 74° WSW 18:26:53 10° S
Cosmos 1356 4.3 18:18:45 10° NW 18:21:55 29° WSW 18:25:07 10° S
Cosmos 2228 Rocket 3.9 18:18:22 10° SSW 18:22:25 31° W 18:26:28 10° NNW
Aureole 1 Rocket 3.7 18:20:05 10° S 18:22:58 35° ESE 18:25:52 10° NE
Cosmos 1844 Rocket 2.9 18:17:31 10° NW 18:23:02 50° SW 18:28:35 10° SSE
Cosmos 968 Rocket 3.6 18:19:08 10° NW 18:24:11 54° WSW 18:29:19 10° SSE
Cosmos 1484 Rocket 4.2 18:22:19 10° NW 18:25:25 21° W 18:28:32 10° SW
Cosmos 1707 Rocket 4.3 18:21:18 10° S 18:25:44 59° ESE 18:30:09 10° NNE
Cosmos 2112 Rocket 4.3 18:21:34 10° SSW 18:26:52 70° ESE 18:32:04 10° NNE
Lacrosse 4 Rocket 4.0 18:26:35 10° SSE 18:27:19 10° SSE 18:28:03 10° SE
Cosmos 773 Rocket 4.2 18:22:36 10° SSW 18:27:38 51° WNW 18:32:37 10° N
Cosmos 1500 Rocket 3.7 18:24:01 10° NNW 18:28:24 52° WSW 18:32:52 10° S
FREGAT/IRIS 2.8 18:25:34 10° NNE 18:28:41 80° ESE 18:31:51 10° S
Cosmos 1680 Rocket 3.6 18:23:33 10° SSW 18:28:53 82° ESE 18:34:08 10° NNE
YAOGAN 1 3.7 18:27:02 10° NNW 18:30:37 24° W 18:34:14 10° SW
ALOS 2.3 18:27:40 10° NNE 18:32:23 81° WNW 18:37:11 10° SSW
ATLAS 3B R/B 3.4 18:25:55 10° NNW 18:32:23 59° ENE 18:39:13 10° SE
Cosmos 1151 Rocket 3.7 18:29:26 10° SSW 18:33:29 35° W 18:37:30 10° NNW
SL-24 DEB 4.5 18:33:31 10° NNW 18:38:05 50° W 18:42:45 10° SSW
FengYun 1-2 T 4.4 18:33:04 10° NNE 18:38:43 80° ESE 18:44:22 10° SSW
Cosmos 1932 4.4 18:33:07 10° NW 18:39:19 81° SW 18:45:31 10° SE
SeaSat 1 2.5 18:36:21 10° SSE 18:41:19 67° SW 18:46:16 10° NW
SL-27 R/B 3.7 18:39:53 10° SW 18:42:56 25° WNW 18:45:55 10° NNW
COSMO-SKYMED 1 2.9 18:38:49 10° S 18:43:03 45° WSW 18:47:14 10° NW
CZ-2D R/B 4.4 18:40:06 10° NE 18:43:48 45° ESE 18:47:33 10° S
Sich 1 4.0 18:40:44 10° N 18:45:02 54° E 18:49:22 10° SSE
Cosmos 44 3.9 18:40:41 10° WNW 18:45:37 42° SW 18:50:45 10° SSE
Cosmos 1666 Rocket 4.5 18:41:49 10° N 18:46:12 56° E 18:50:42 10° SSE
Thor Agena Rocket 3.6 18:44:57 10° S 18:50:17 68° WSW 18:55:28 10° NNW
Cosmos 2278 Rocket 2.2 18:45:05 10° NW 18:50:47 69° WSW 18:56:33 10° SSE
Cosmos 1805 Rocket 3.6 18:47:57 10° N 18:52:27 87° WSW 18:56:58 10° S
BREEZE-M DEB (TANK) 4.2 18:39:09 10° WSW 18:54:27 57° NW 18:58:32 10° NE
ATLAS 5 CENTAUR R/B 3.4 18:50:52 10° SW 18:55:51 30° SSE 19:00:22 10° E
USA 238 DEB 4.4 18:51:04 10° NNW 18:58:11 67° NE 19:05:19 10° SE
USA 238 4.4 18:51:11 10° NNW 18:58:18 67° NE 19:05:26 10° SE
